Ely, NV

11:15 AM PDT on May 22, 2018 (GMT -0700)
Ely

Weather History for KELY - December, 2013

Change the Weather History Date:

Monday, December 23, 2013

  Actual Average Record
Temperature  
Mean Temperature 31 °F 24 °F  
Max Temperature 48 °F 39 °F 58 °F (1901)
Min Temperature 14 °F 10 °F -28 °F (1990)
Degree Days  
Heating Degree Days 34 40  
Month to date heating degree days 1034 906  
Since 1 July heating degree days 2799 2774  
Cooling Degree Days 0 0  
Month to date cooling degree days 0 0  
Year to date cooling degree days 387 218  
Moisture  
Dew Point 22 °F    
Average Humidity 79    
Maximum Humidity 100    
Minimum Humidity 57    
Precipitation  
Precipitation 0.00 in 0.02 in 0.55 in (1955)
Month to date precipitation 0.98 0.41  
Year to date precipitation 8.53 9.58  
Snow  
Snow 0.00 in 0.30 in 3.00 in (2001)
Month to date snowfall 12.9 5.7  
Since 1 July snowfall 25.8 15.2  
Snow Depth 5.00 in    
Sea Level Pressure  
Sea Level Pressure 30.49 in    
Wind  
Wind Speed 10 mph (South)    
Max Wind Speed 17 mph    
Max Gust Speed 20 mph    
Visibility 10 miles    
Events      
T = Trace of Precipitation, MM = Missing Value Source: NWS Daily Summary

Daily Weather History Graph

Daily Weather History Graph

Search for Another Location

Airport or City:

Astronomy

Dec. 23, 2013 Rise Set
Actual Time 6:56 AM PST 4:20 PM PST
Civil Twilight 6:26 AM PST 4:50 PM PST
Nautical Twilight 5:52 AM PST 5:24 PM PST
Astronomical Twilight 5:20 AM PST 5:57 PM PST
Moon 10:32 PM PST (12/23) 10:25 AM PST (12/23)
Length of Visible Light 10h 24m
Length of Day
9h 24m
Waning Gibbous, 67% of the Moon is Illuminated
Dec 23
Waning Gibbous
Dec 25
Last Quarter
Jan 1
New
Jan 7
First Quarter
Jan 15
Full

Hourly Weather History & Observations

Time (PST) Temp. Windchill Dew Point Humidity Pressure Visibility Wind Dir Wind Speed Gust Speed Precip Events Conditions
12:53 AM 21.9 °F 14.5 °F 21.0 °F 96% 30.43 in 10.0 mi South 5.8 mph - N/A   Partly Cloudy
1:53 AM 19.9 °F 8.6 °F 18.0 °F 92% 30.45 in 10.0 mi SSE 10.4 mph - N/A   Partly Cloudy
2:53 AM 19.9 °F 7.9 °F 18.0 °F 92% 30.46 in 10.0 mi South 11.5 mph - N/A   Clear
3:53 AM 17.1 °F 6.6 °F 15.1 °F 92% 30.49 in 10.0 mi SSE 8.1 mph - N/A   Clear
4:53 AM 17.1 °F 3.6 °F 15.1 °F 92% 30.50 in 10.0 mi SSE 12.7 mph - N/A   Clear
5:53 AM 16.0 °F 1.7 °F 14.0 °F 92% 30.51 in 10.0 mi South 13.8 mph - N/A   Clear
6:53 AM 15.1 °F -0.1 °F 12.0 °F 88% 30.54 in 10.0 mi South 15.0 mph - N/A   Clear
7:53 AM 15.1 °F -0.6 °F 12.9 °F 91% 30.56 in 10.0 mi SSE 16.1 mph - N/A   Clear
8:53 AM 24.1 °F 11.5 °F 21.0 °F 88% 30.54 in 10.0 mi South 15.0 mph - N/A   Clear
9:53 AM 30.9 °F 22.2 °F 26.1 °F 82% 30.52 in 10.0 mi South 10.4 mph - N/A   Clear
10:53 AM 36.0 °F 29.0 °F 28.0 °F 73% 30.49 in 10.0 mi South 9.2 mph - N/A   Clear
11:53 AM 39.0 °F 32.8 °F 28.9 °F 67% 30.45 in 10.0 mi South 9.2 mph - N/A   Clear
12:53 PM 39.9 °F 36.7 °F 28.9 °F 65% 30.44 in 10.0 mi South 4.6 mph - N/A   Clear
1:53 PM 42.1 °F - 28.9 °F 60% 30.44 in 10.0 mi Calm Calm - N/A   Clear
2:53 PM 45.0 °F - 30.0 °F 56% 30.41 in 10.0 mi Calm Calm - N/A   Clear
3:53 PM 37.0 °F - 28.9 °F 73% 30.48 in 10.0 mi Calm Calm - N/A   Clear
4:53 PM 30.9 °F 27.5 °F 27.0 °F 85% 30.51 in 10.0 mi SSE 3.5 mph - N/A   Clear
5:53 PM 28.9 °F 22.8 °F 26.1 °F 89% 30.53 in 10.0 mi South 5.8 mph - N/A   Partly Cloudy
6:53 PM 26.1 °F 16.8 °F 24.1 °F 92% 30.54 in 10.0 mi South 9.2 mph - N/A   Clear
7:53 PM 26.1 °F 15.0 °F 23.0 °F 88% 30.54 in 10.0 mi South 12.7 mph - N/A   Mostly Cloudy
8:53 PM 23.0 °F 11.1 °F 21.0 °F 92% 30.51 in 10.0 mi South 12.7 mph - N/A   Partly Cloudy
9:53 PM 23.0 °F 10.6 °F 21.0 °F 92% 30.48 in 10.0 mi South 13.8 mph - N/A   Clear
10:53 PM 19.9 °F 6.2 °F 18.0 °F 92% 30.46 in 10.0 mi South 15.0 mph - N/A   Clear
11:53 PM 19.9 °F 6.7 °F 18.0 °F 92% 30.44 in 10.0 mi South 13.8 mph - N/A   Clear